Flag for France Weather past 2 weeks in Douai, France

Now
64 °F

Scattered clouds.


Feels Like: 64 °F
Forecast: 48 / 68 °F
Wind: 15 mph from Northwest

Location: Lille Airport

Current Time: Aug 23, 2014 at 2:32:16 PM

Latest Report: Aug 23, 2014 at 1:30 PM


Visibility: N/A

Pressure: 29.95 "Hg

Humidity: 52%

Dew point: 46 °F

Location of DouaiLocation

Historic Weather in Douai — Graph

°F

Douai temperature yesterday

Maximum temperature yesterday: 64 °F (at 6:30 PM)
Minimum temperature yesterday: 52 °F (at 1:30 AM)
Average temperature yesterday: 57 °F

Past Weeks' High & Low Weather Summary

 TemperatureHumidityPressure
High72 °F (Aug 9, 3:00 PM)100% (Aug 13, 5:30 AM)30.15 "Hg (Aug 13, 5:30 AM)
Low46 °F (Aug 20, 5:00 AM)46% (Aug 19, 4:00 PM)29.50 "Hg (Aug 10, 3:30 PM)
Average60 °F78%29.87 "Hg
* Reported Aug 8 1:00 PM — Aug 23 1:30 PM, Douai, Weather by CustomWeather, © 2014

Note: Actual official high and low records may vary slightly from our data, if they occured in-between our weather recording intervals... More about our weather records

Advertising

Douai weather history for previous 24 hours

 ConditionsComfort  
Time TempWeatherWind HumidityBarometerVisibility
1:30 PM
Aug 23
64 °FScattered clouds.15 mph52%29.95 "HgN/A
1:00 PM64 °FScattered clouds.13 mph56%29.95 "HgN/A
12:30 PM63 °FScattered clouds.14 mph59%29.95 "HgN/A
12:00 PM63 °FScattered clouds.13 mph64%29.95 "HgN/A
11:30 AM61 °FScattered clouds.12 mph72%29.95 "HgN/A
11:00 AM61 °FScattered clouds.9 mph72%29.95 "HgN/A
10:30 AM59 °FScattered clouds.8 mph82%29.95 "HgN/A
10:00 AM57 °FPartly sunny.7 mph88%29.95 "HgN/A
9:30 AM55 °FPartly sunny.7 mph88%29.95 "HgN/A
9:00 AM54 °FPartly sunny.5 mph94%29.95 "HgN/A
8:30 AM52 °FPartly sunny.5 mph100%29.95 "HgN/A
8:00 AM50 °FScattered clouds.3 mph100%29.92 "HgN/A
7:30 AM50 °FPassing clouds.2 mph94%29.92 "HgN/A
7:00 AM48 °FFog.3 mph100%29.92 "HgN/A
6:30 AM50 °FFog.3 mph94%29.92 "Hg5 mi
6:00 AM50 °FPartly cloudy.3 mph100%29.92 "Hg5 mi
5:00 AM52 °FPartly cloudy.2 mph94%29.92 "HgN/A
4:30 AM52 °FClear.3 mph100%29.92 "HgN/A
4:00 AM52 °FClear.3 mph94%29.92 "HgN/A
3:30 AM52 °FPassing clouds.3 mph94%29.92 "HgN/A
3:00 AM54 °FPartly cloudy.5 mph88%29.92 "HgN/A
2:30 AM54 °FPassing clouds.3 mph94%29.92 "HgN/A
2:00 AM54 °FClear.2 mph94%29.92 "Hg10 mi
1:00 AM54 °FClear.3 mph94%29.92 "Hg10 mi
12:00 AM55 °FClear.6 mph88%29.92 "Hg10 mi
11:30 PM
Aug 22
55 °FClear.6 mph88%29.92 "Hg10 mi
11:00 PM55 °FClear.7 mph88%29.92 "Hg10 mi
10:30 PM57 °FClear.3 mph82%29.92 "Hg10 mi
10:00 PM57 °FClear.5 mph82%29.92 "Hg10 mi
9:30 PM57 °FPartly sunny.6 mph82%29.92 "HgN/A
9:00 PM59 °FPartly sunny.6 mph82%29.89 "HgN/A
8:30 PM59 °FPartly sunny.7 mph82%29.89 "HgN/A
8:00 PM61 °FPartly sunny.9 mph77%29.89 "HgN/A
7:30 PM63 °FScattered clouds.10 mph73%29.89 "HgN/A
7:00 PM64 °FPassing clouds.13 mph68%29.86 "HgN/A
6:30 PM64 °FScattered clouds.12 mph68%29.86 "HgN/A
6:00 PM63 °FPartly sunny.7 mph77%29.89 "HgN/A
5:30 PM61 °FScattered clouds.12 mph72%29.89 "HgN/A
5:00 PM63 °FScattered clouds.13 mph77%29.89 "HgN/A
4:30 PM63 °FScattered clouds.14 mph77%29.86 "HgN/A
4:00 PM61 °FPartly sunny.10 mph88%29.89 "HgN/A
3:30 PM57 °FLight rain. More clouds than sun.12 mph94%29.89 "Hg4 mi
3:00 PM59 °FLight rain. Partly sunny.12 mph88%29.89 "HgN/A
2:30 PM59 °FLight rain. Partly sunny.15 mph88%29.89 "HgN/A
2:00 PM61 °FLight rain. Partly sunny.10 mph77%29.89 "HgN/A
Weather by CustomWeather, © 2014

See weather overviewHow to use our weather pages